Weather in Novoslobodsk

Russia / Kaluga Oblast     53°58′07″N   34°49′02″E
temp.,
°C
wind,
m/s
gust,
m/s
humid.,
%
clouds,
%
prec.,
mm/h
press.,
hPa
HPBL,
m
13 april, tue
tue1300:00+10ese31388100 0.0 1022303
03:00+8se3108816 0.0 1022183
06:00+8se3990100 0.0 1023152
09:00+12sse3771100 0.0 1023253
12:00+18se5852100 0.0 10221056
15:00+19sse6104349 0.0 10212129
18:00+16sse41056100 0.0 1020456
21:00+12sse377066 0.0 1020137
14 april, wed
wed1400:00+10se357912 0.0 102091
03:00+9se38898 0.0 1019164
06:00+8sse2593100 0.0 1019108
09:00+11sse368270 0.0 1018302
12:00+16sse3561100 0.2 10171175
15:00+18se3647100 0.9 10151839
18:00+15sse1263100 0.1 101541
21:00+11ssw1184100 0.2 101613
15 april, thu
thu1500:00+11ese2782100 0.0 1016237
03:00+8se2793100 0.0 1016156
06:00+7se259599 0.0 101698
09:00+12se247899 0.0 1016318
12:00+14se2467100 0.1 1015692
15:00+14e2667100 0.6 1014610
18:00+13ene1275100 0.6 101337
21:00+10ssw128758 1.3 101421
16 april, fri
fri1600:00+8e229130 0.1 101435
03:00+7e229398 0.1 101535
06:00+8ene379495 0.3 1015190
09:00+10ene4685100 0.4 1015519
12:00+11ene4788100 0.3 1016395
15:00+13ene2576100 1.6 1016611
18:00+13ese2481100 3.1 1016145
21:00+10nne4994100 7.9 1018261
17 april, sat
sat1700:00+10ene51292100 2.6 1020681
03:00+8ene61489100 3.3 1021541
06:00+6ne61492100 0.3 1022570
09:00+8ene6138284 0.3 1023708
12:00+11ene7116422 0.0 10241146
15:00+13ene711465 0.0 10251472
18:00+11ene611500 0.0 10261337
21:00+7ene513600 0.0 1028539